Location: Paddlesworth
(51.1000°N, 1.1333°E)
Time: 06:57:55
(UTC+00:00)

Terra - Pass Details

Date: 11 May 2021
Orbit: 701 x 703 km, 98.2° (Epoch: 20 June)

Event Time Altitude Azimuth Distance (km) Brightness Sun altitude
Exits shadow 21:32:48 22° 157° (SSE) 1,512 2.9 -14.4°
Maximum altitude 21:35:52 79° 73° (ENE) 723 1.8 -14.6°
Drops below altitude 10° 21:40:40 10° 348° (NNW) 2,184 5.5 -15.1°
Sets 21:42:56 0° 347° (NNW) 3,107 6.6 -15.2°
